www.pogodaiklimat.ru

Погода и климат >> Архив погоды >> Аргентина >> Villa Reynolds


ПОГОДА в Villa Reynolds

  • Прогноз погоды в Villa Reynolds
  • Монитор погоды в Villa Reynolds
  • Климат города

АРХИВ ПОГОДЫ в Villa Reynolds

Время (UTC), дата Ветер
(напр.,м/с)
 
Видим.   Явления Облачность Т
(С)
Тd
(С)
f
(%)
Тe
(С)
Тes
(С)
Комфортность P
(гПа)
Po
(гПа)
Тmin
(С)
Tmax
(С)
R
(мм)
R24
(мм)
S
(см)
03 20.04 штиль 0 1500 м дымка ясно +13.3 +13.3 100 +13 +13 1012.2 956.9
06 20.04 штиль 0 500 м туман ясно +12.7 +12.7 100 +12 +12 1013.1 957.3
09 20.04 З 3 8000 м дымка {туман} ясно +11.0 +11.0 100 +9 +9 1013.0 956.5
12 20.04 штиль 0 8000 м в посл. час туман туман 3/3 240 м
[St]
+10.6 +10.2 97 +10 +11 1014.5 957.7 +9.6 +15.5 36
15 20.04 штиль 0 10 км ясно +22.8 +15.4 63 +27 +39 душно 1013.5 957.7
18 20.04 штиль 0 15 км ясно +27.8 +14.4 44 +30 +41 жарко 1010.8 955.6
21 20.04 В 3 15 км 1/1 1200 м
[Cb cap]
+27.5 +15.0 46 +30 +30 жарко 1010.7 955.3
00 21.04 СВ 3 15 км ясно +19.8 +14.1 70 +22 +22 комфорт 1013.5 957.2 +10.6 +28.4
03 21.04 штиль 0 10 км ясно +16.0 +14.3 90 +16 +16 1013.8 958.2
06 21.04 штиль 0 10 км ясно +14.0 +12.2 89 +14 +14 1012.9 957.7
09 21.04 штиль 0 10 км дымка ясно +12.6 +10.6 88 +12 +12 1012.5 957.0
12 21.04 штиль 0 5000 м дымка ясно +12.6 +11.5 93 +12 +13 1014.4 958.2 +9.6 +19.8
15 21.04 С 4 10 км 1/1 1050 м
[Cu hum]
+27.3 +19.2 61 +33 +38 очень
душно
1012.8 957.7
18 21.04 СВ 7 10 км 4/4 1050 м
[Sc]
+31.0 +19.4 50 +37 +38 очень
душно
1009.5 954.6
21 21.04 В 4 10 км 3/3 1050 м
[Sc]
+29.2 +17.0 48 +33 +33 очень
душно
1008.2 953.2
00 22.04 СВ 7 10 км ясно +23.0 +18.4 75 +29 +29 очень
душно
1009.2 953.6 +12.6 +31.2
03 22.04 С 3 10 км ясно +22.0 +18.1 79 +27 +27 душно 1007.6 953.6
06 22.04 С 3 10 км ясно +20.3 +18.3 88 +24 +24 комфорт 1007.3 953.2
12 22.04 СВ 3 10 км 3/1 1050 м
[Cu hum Cs]
+19.2 +15.9 81 +21 +22 комфорт 1008.5 953.4 +17.4 +23.3
15 22.04 СЗ 3 15 км 9/8 1050 м
[Cb cap Ac As]
+30.2 +14.8 39 +32 +33 жарко 1008.5 954.4
18 22.04 ЮВ 9 10 км в посл. час ливневой дождь {гроза} 9/9 900 м
[Cb cap As op]
+22.1 +17.4 75 +27 +27 душно 1009.9 954.9 0.0
21 22.04 В 7 10 км 9/5 900 м
[Sc As op Ci ing]
+21.2 +17.1 77 +25 +25 комфорт 1011.3 956.0
00 23.04 штиль 0 10 км 5/3 900 м
[Sc As op]
+17.3 +15.5 89 +17 +17 1015.4 959.4 +17.3 +30.2
03 23.04 СВ 1 10 км 3/0
[Ac As]
+14.4 +14.1 98 +15 +15 1016.3 961.0
06 23.04 штиль 0 6000 м дымка 4/0
[Ac As]
+12.2 +12.2 100 +11 +11 1017.1 960.9
09 23.04 В 4 8000 м в посл. час туман туман 10/10 240 м
[St]
+13.0 +12.3 96 +11 +11 1016.4 960.2
12 23.04 ЮВ 4 8000 м дымка {туман} 10/10 240 м
[St]
+14.6 +13.9 96 +13 +13 1018.6 962.1 +12.0 +17.4 0.0
15 23.04 СВ 4 10 км 9/6 540 м
[Cu Sc Ac As]
+20.0 +14.0 68 +22 +23 комфорт 1017.8 961.6
18 23.04 СВ 7 10 км 9/6 600 м
[Sc Ac As]
+19.8 +14.1 70 +21 +22 комфорт 1016.5 960.2
21 23.04 В 7 10 км 10/6 600 м
[Sc Ac As]
+18.6 +14.6 78 +19 +19 1016.6 960.2
00 24.04 СВ 4 10 км 10/6 240 м
[St Ac As]
+16.6 +15.3 92 +16 +16 1019.1 962.5 +14.6 +21.3
03 24.04 СВ 4 100 м 8/8 240 м
[St]
+16.6 +16.1 97 +16 +16 1018.2 962.2
06 24.04 В 3 10 км 4/0
[Ac As]
+15.8 +14.4 91 +15 +15 1016.6 960.6
09 24.04 штиль 0 10 км 8/3 240 м
[St Ac As]
+16.0 +15.2 95 +16 +16 1015.5 959.4
12 24.04 штиль 0 10 км 8/3 900 м
[Sc Ac As]
+18.1 +15.8 86 +18 +19 1016.5 960.4 +14.8 +18.1
15 24.04 С 4 3000 м гроза, ливневой дождь 9/6 600 м
[Cb cap As op]
+19.8 +18.2 90 +23 +23 комфорт 1016.2 960.2
18 24.04 СВ 3 10 км {гроза, дождь} 9/6 600 м
[Sc Ac As]
+24.4 +17.6 66 +28 +30 душно 1012.7 957.3 2
21 24.04 С 4 10 км 9/6 600 м
[Sc Ac As]
+23.0 +17.7 72 +28 +28 душно 1013.2 957.7
00 25.04 В 3 10 км 9/4 600 м
[Sc Ac As]
+19.3 +17.2 88 +22 +22 комфорт 1015.6 959.8 +18.1 +24.9
03 25.04 штиль 0 10 км 5/0
[Ac As]
+18.2 +16.9 92 +19 +19 1016.5 960.6
06 25.04 штиль 0 10 км 8/3 900 м
[Sc Ac As]
+17.8 +16.2 90 +18 +18 1016.4 961.0
09 25.04 штиль 0 300 м туман 10/10 120 м
[St]
+17.8 +17.8 100 +18 +18 1016.5 961.0
12 25.04 штиль 0 1500 м в посл. час туман туман 10/10 240 м
[St]
+18.4 +17.8 96 +19 +19 1018.2 962.2 +17.2 +19.3 2
18 25.04 С 3 12 км {морось} 9/9 360 м
[St]
+24.4 +17.9 67 +29 +29 душно 1014.7 959.4 0.0
21 25.04 СВ 7 15 км 9/8 450 м
[St Ac As]
+24.4 +17.6 66 +28 +28 душно 1013.0 957.8
00 26.04 СВ 3 15 км 4/4 750 м
[Sc]
+20.4 +18.2 87 +24 +24 комфорт 1013.2 957.7 +18.2 +25.7
03 26.04 штиль 0 10 км 5/0
[Ac As]
+20.0 +18.1 89 +23 +23 комфорт 1013.1 957.8
06 26.04 С 3 10 км 9/5 1050 м
[Sc Ac As]
+20.0 +18.4 91 +24 +24 комфорт 1011.5 956.6
09 26.04 С 4 10 км 5/3 1050 м
[Sc Ac As]
+21.0 +18.5 86 +26 +26 душно 1009.1 954.4
12 26.04 СВ 4 10 км 9/1 300 м
[Frnb Cs]
+20.4 +18.5 89 +24 +25 комфорт 1008.8 953.7 +19.1 +21.1 0.0
15 26.04 СЗ 9 10 км 6/4 540 м
[Sc Ac As Cs]
+27.0 +18.3 59 +32 +32 очень
душно
1007.4 952.9
18 26.04 СЗ 12 7000 м пыльный позёмок 5/0
[Ac As Cs]
+31.7 +17.6 43 +36 +36 очень
душно
1003.3 949.4
21 26.04 СЗ 7 10 км ясно +29.0 +16.6 47 1002.8

 

Местоположение метеостанции Villa Reynolds (Аргентина): широта -33.73 долгота -65.38 высота над уровнем моря 486 м.

В архиве по умолчанию представлена погода в Villa Reynolds за последнюю неделю. Архивные данные за месяц целиком и за предыдущие месяцы, начиная с января 2011 года, Вы можете получить, выбрав интересующий диапазон дат из раскрывающегося списка и нажав кнопку "Ввод!".


*Определитесь, кто Вы:
робот инопланетянин человек

Внимание! Время в таблицах - всемирное. Для получения местного времени необходимо прибавить поправку, которая в Villa Reynolds равна -3 ч.

Смотрите также архив погоды в соседних городах и на ближайших метеорологических станциях:

Погода в San Luis (Аргентина) (104 км)
Погода в Rio Cuarto (Аргентина) (125 км)
Погода в Laboulaye (Аргентина) (192 км)
Погода в Villa Dolores (Аргентина) (199 км)
Погода в General Pico (Аргентина) (265 км)
Погода в Pilar (Аргентина) (270 км)
Погода в San Martin (Аргентина) (290 км)
Погода в Cordoba (Аргентина) (291 км)
Погода в San Rafael (Аргентина) (294 км)
Погода в Marcos Juarez (Аргентина) (322 км)

Пояснения к столбцам:

Ветер - указаны скорость ветра в м/с - средняя за 10 мин, порывы в срок и между сроками (в фигурных скобках) и направление, откуда дует ветер: С - северный, СВ - северо-восточный, В - восточный, ЮВ - юго-восточный, Ю - южный, ЮЗ - юго-западный, З - западный, СЗ - северо-западный.
Видимость - горизонтальная дальность видимости в метрах или километрах. При видимости от 1 до 10 км при отсутствии осадков обычно наблюдается дымка, при ухудшении видимости до 1 км и менее - туман. В сухую погоду видимость может ухудшаться дымом, пылью или мглою.
Явления - указаны атмосферные явления, наблюдавшиеся в срок или в последний час перед сроком; фигурными скобками обозначены явления, наблюдавшиеся между сроками (за 1-3 часа до срока); квадратными скобками обозначены град или гололедные отложения с указанием их диаметра в мм.
Облачность - указаны через наклонную черту общая и нижняя облачность в баллах и высота нижней границы облаков в метрах; квадратными скобками обозначены формы облаков: Ci - перистые, Cs - перисто-слоистые, Cc - перисто-кучевые, Ac - высококучевые, As - высокослоистые, Sc - слоисто-кучевые, Ns - слоисто-дождевые, Cu - кучевые, Cb - кучево-дождевые. Подробнее классификацию облаков см. в Атласе облаков (PDF).
T - Температура воздуха - температура, измеренная на высоте 2 м над землей.
Td - Температура точки росы - температура, при понижении до которой содержащийся в воздухе водяной пар достигнет насыщения.
f - Относительная влажность воздуха - влажноcть воздуха, измеренная на высоте 2 м над землей.
Te - Эффективная температура - температура, которую ощущает одетый по сезону человек в тени. Характеристика душности погоды. При расчете учитывается влияние влажности воздуха и скорости ветра на теплоощущения человека.
Tes - Эффективная температура на солнце - температура, которую ощущает человек, с поправкой на солнечный нагрев. Характеристика знойности погоды. Зависит от высоты солнца над горизонтом, облачности и скорости ветра. Ночью, в пасмурную погоду, а также при ветре 12 м/с и более поправка равна нулю.
P - Атмосферное давление - приведенное к уровню моря атмосферное давление.
Po - Атмосферное давление - измеренное на уровне метеостанции атмосферное давление.
Tmin - Минимальная температура - минимум температуры воздуха на высоте 2 м над землей.
Tmax - Максимальная температура - максимум температуры воздуха на высоте 2 м над землей.
R - Количество осадков - Количество выпавших осадков за период времени, мм. При наведении курсора мыши на число - период времени, за который выпало указанное количество осадков.
R24 - Количество осадков - Количество выпавших осадков за 24 часа, мм.
S - Снежный покров - Высота снежного покрова, см. При наведении курсора мыши на число - состояние снежного покрова и степень покрытия местности в баллах.